Location: Béaulencourt
(50.0796°N, 2.8795°E)
Time: 09:44:41
(UTC+00:00)

Cosmos 1867 - Pass Details

Date: 20 January 2026
Orbit: 777 x 797 km, 65.0° (Epoch: 19 February)

Event Time Altitude Azimuth Distance (km) Brightness Sun altitude
Exits shadow 06:08:17 11° 327° (NNW) 2,317 5.6 -13.9°
Maximum altitude 06:13:23 47° 40° (NE) 1,049 4.4 -13.1°
Drops below altitude 10° 06:18:38 10° 115° (ESE) 2,365 7.5 -12.3°
Sets 06:21:09 0° 121° (ESE) 3,290 8.5 -11.9°
